| time (UTC) | temp C | wind direction | speed KPH | gust KPH | rain 1hr cm | rain 24hr cm | rain mn cm | humidity % | barometer mb |
| 20260506155503 | 25 | 84 | 3.2 | 11.3 | 0.00 | 0.00 | 0.00 | 90 | 1012.5 |
| 20260506155003 | 25 | 140 | 3.2 | 9.7 | 0.00 | 0.00 | 0.00 | 90 | 1012.6 |
| 20260506154504 | 25 | 144 | 3.2 | 8.0 | 0.00 | 0.00 | 0.00 | 90 | 1012.4 |
| 20260506154004 | 25 | 144 | 3.2 | 8.0 | 0.00 | 0.00 | 0.00 | 90 | 1012.4 |
| 20260506153504 | 25 | 147 | 1.6 | 6.4 | 0.00 | 0.00 | 0.00 | 90 | 1012.3 |
| 20260506153004 | 25 | 158 | 1.6 | 3.2 | 0.00 | 0.00 | 0.00 | 90 | 1012.1 |
| 20260506152525 | 25 | 160 | 1.6 | 3.2 | 0.00 | 0.00 | 0.00 | 89 | 1012.0 |
| 20260506152004 | 25 | 160 | 1.6 | 6.4 | 0.00 | 0.00 | 0.00 | 89 | 1011.8 |
| 20260506151504 | 25 | 160 | 1.6 | 6.4 | 0.00 | 0.00 | 0.00 | 89 | 1011.8 |
| 20260506151004 | 25 | 160 | 1.6 | 6.4 | 0.00 | 0.00 | 0.00 | 90 | 1011.5 |
| 20260506150525 | 25 | 160 | 3.2 | 6.4 | 0.00 | 0.00 | 0.00 | 90 | 1011.5 |
| 20260506150004 | 25 | 160 | 3.2 | 6.4 | 0.00 | 0.00 | 0.00 | 90 | 1011.4 |
| 20260506145504 | 25 | 160 | 3.2 | 6.4 | 0.00 | 0.00 | 0.00 | 90 | 1011.3 |
| 20260506145004 | 25 | 160 | 3.2 | 8.0 | 0.00 | 0.00 | 0.00 | 90 | 1011.2 |
| 20260506144504 | 25 | 160 | 3.2 | 8.0 | 0.00 | 0.00 | 0.00 | 90 | 1011.3 |
| 20260506144025 | 25 | 160 | 3.2 | 9.7 | 0.00 | 0.00 | 0.00 | 90 | 1011.2 |
| 20260506143504 | 25 | 160 | 6.4 | 9.7 | 0.00 | 0.00 | 0.00 | 90 | 1011.1 |
| 20260506143004 | 25 | 160 | 6.4 | 9.7 | 0.00 | 0.00 | 0.00 | 91 | 1010.9 |
| 20260506142504 | 24 | 161 | 3.2 | 9.7 | 0.00 | 0.00 | 0.00 | 91 | 1010.6 |
| 20260506142025 | 24 | 161 | 3.2 | 8.0 | 0.00 | 0.00 | 0.00 | 91 | 1010.8 |
| 20260506141503 | 24 | 161 | 1.6 | 6.4 | 0.00 | 0.00 | 0.00 | 91 | 1011.0 |
| 20260506141004 | 24 | 161 | 0.0 | 6.4 | 0.00 | 0.00 | 0.00 | 91 | 1011.2 |
| 20260506140504 | 24 | 161 | 1.6 | 6.4 | 0.00 | 0.00 | 0.00 | 91 | 1011.2 |
| 20260506140004 | 24 | 161 | 3.2 | 9.7 | 0.00 | 0.00 | 0.00 | 91 | 1011.1 |
| 20260506135504 | 24 | 161 | 3.2 | 9.7 | 0.00 | 0.00 | 0.00 | 91 | 1010.8 |
| 20260506135025 | 24 | 161 | 3.2 | 8.0 | 0.00 | 0.00 | 0.00 | 92 | 1010.4 |
| 20260506134504 | 24 | 161 | 1.6 | 6.4 | 0.00 | 0.00 | 0.00 | 92 | 1010.2 |
| 20260506134004 | 24 | 161 | 1.6 | 8.0 | 0.00 | 0.00 | 0.00 | 92 | 1010.4 |
| 20260506133504 | 24 | 161 | 6.4 | 9.7 | 0.00 | 0.00 | 0.00 | 92 | 1010.3 |
| 20260506133025 | 24 | 161 | 3.2 | 9.7 | 0.00 | 0.00 | 0.00 | 92 | 1010.2 |
| 20260506132504 | 24 | 161 | 3.2 | 9.7 | 0.00 | 0.00 | 0.00 | 92 | 1010.2 |
| 20260506132004 | 24 | 161 | 3.2 | 9.7 | 0.00 | 0.00 | 0.00 | 92 | 1010.2 |
| 20260506131504 | 24 | 161 | 6.4 | 11.3 | 0.00 | 0.00 | 0.00 | 92 | 1010.3 |
| 20260506131003 | 24 | 162 | 6.4 | 11.3 | 0.00 | 0.00 | 0.00 | 92 | 1010.1 |
| 20260506130505 | 24 | 162 | 3.2 | 9.7 | 0.00 | 0.00 | 0.00 | 92 | 1010.1 |
| 20260506130005 | 23 | 162 | 3.2 | 11.3 | 0.00 | 0.00 | 0.00 | 91 | 1010.1 |
| 20260506125503 | 23 | 162 | 6.4 | 11.3 | 0.00 | 0.00 | 0.00 | 91 | 1010.0 |
| 20260506125004 | 23 | 164 | 6.4 | 11.3 | 0.00 | 0.00 | 0.00 | 91 | 1009.9 |
| 20260506124525 | 23 | 167 | 3.2 | 9.7 | 0.00 | 0.00 | 0.00 | 91 | 1010.0 |
| 20260506124004 | 23 | 167 | 3.2 | 8.0 | 0.00 | 0.00 | 0.00 | 91 | 1010.0 |
| 20260506123504 | 23 | 167 | 3.2 | 8.0 | 0.00 | 0.00 | 0.00 | 91 | 1009.9 |
| 20260506123004 | 23 | 167 | 6.4 | 9.7 | 0.00 | 0.00 | 0.00 | 91 | 1010.0 |
| 20260506122504 | 23 | 167 | 3.2 | 9.7 | 0.00 | 0.00 | 0.00 | 91 | 1010.1 |
| 20260506122024 | 23 | 167 | 3.2 | 9.7 | 0.00 | 0.00 | 0.00 | 91 | 1010.1 |
| 20260506121524 | 23 | 170 | 3.2 | 9.7 | 0.00 | 0.00 | 0.00 | 91 | 1010.0 |
| 20260506121004 | 23 | 172 | 3.2 | 8.0 | 0.00 | 0.00 | 0.00 | 91 | 1009.9 |
| 20260506120504 | 23 | 172 | 1.6 | 6.4 | 0.00 | 0.00 | 0.00 | 90 | 1009.9 |
| 20260506120004 | 23 | 172 | 1.6 | 6.4 | 0.00 | 0.00 | 0.00 | 90 | 1009.8 |
| 20260506115525 | 23 | 172 | 1.6 | 6.4 | 0.00 | 0.00 | 0.00 | 90 | 1009.8 |
| 20260506115004 | 23 | 172 | 1.6 | 8.0 | 0.00 | 0.00 | 0.00 | 90 | 1009.7 |
| 20260506114503 | 23 | 172 | 1.6 | 8.0 | 0.00 | 0.00 | 0.00 | 90 | 1009.8 |
| 20260506114003 | 23 | 172 | 1.6 | 6.4 | 0.00 | 0.00 | 0.00 | 90 | 1009.8 |
| 20260506113503 | 23 | 172 | 1.6 | 6.4 | 0.00 | 0.00 | 0.00 | 90 | 1009.8 |
| 20260506113025 | 24 | 172 | 1.6 | 6.4 | 0.00 | 0.00 | 0.00 | 90 | 1009.8 |
| 20260506112504 | 24 | 172 | 1.6 | 3.2 | 0.00 | 0.00 | 0.00 | 90 | 1009.7 |
| 20260506112003 | 23 | 172 | 1.6 | 3.2 | 0.00 | 0.00 | 0.00 | 90 | 1009.8 |
| 20260506111524 | 24 | 172 | 1.6 | 6.4 | 0.00 | 0.00 | 0.00 | 90 | 1009.8 |
| 20260506111004 | 24 | 172 | 3.2 | 8.0 | 0.00 | 0.00 | 0.00 | 90 | 1009.7 |
| 20260506110525 | 24 | 172 | 3.2 | 9.7 | 0.00 | 0.00 | 0.00 | 90 | 1009.6 |
| 20260506110004 | 24 | 172 | 1.6 | 9.7 | 0.00 | 0.00 | 0.00 | 90 | 1009.6 |
| 20260506105504 | 24 | 172 | 3.2 | 9.7 | 0.00 | 0.00 | 0.00 | 91 | 1009.6 |
| 20260506105004 | 24 | 172 | 3.2 | 9.7 | 0.00 | 0.00 | 0.00 | 90 | 1009.5 |
| 20260506104504 | 24 | 172 | 3.2 | 11.3 | 0.00 | 0.00 | 0.00 | 91 | 1009.4 |
| 20260506104025 | 24 | 172 | 6.4 | 11.3 | 0.00 | 0.00 | 0.00 | 91 | 1009.5 |
| 20260506103525 | 24 | 172 | 3.2 | 11.3 | 0.00 | 0.00 | 0.00 | 91 | 1009.4 |
| 20260506103025 | 24 | 172 | 6.4 | 11.3 | 0.00 | 0.00 | 0.00 | 91 | 1009.2 |
| 20260506102525 | 24 | 171 | 6.4 | 12.9 | 0.00 | 0.00 | 0.00 | 90 | 1009.2 |
| 20260506102003 | 24 | 174 | 6.4 | 12.9 | 0.00 | 0.00 | 0.00 | 91 | 1009.2 |
| 20260506101503 | 24 | 179 | 8.0 | 12.9 | 0.00 | 0.00 | 0.00 | 91 | 1009.1 |
| 20260506101004 | 24 | 180 | 8.0 | 12.9 | 0.00 | 0.00 | 0.00 | 91 | 1009.0 |
| 20260506100525 | 24 | 181 | 8.0 | 12.9 | 0.00 | 0.00 | 0.00 | 91 | 1009.0 |
| 20260506100025 | 24 | 172 | 8.0 | 16.1 | 0.00 | 0.00 | 0.00 | 91 | 1009.0 |
| 20260506095503 | 24 | 160 | 8.0 | 16.1 | 0.00 | 0.00 | 0.00 | 91 | 1009.0 |
| 20260506095004 | 24 | 173 | 8.0 | 12.9 | 0.00 | 0.00 | 0.00 | 91 | 1009.0 |
| 20260506094503 | 24 | 174 | 8.0 | 12.9 | 0.00 | 0.00 | 0.00 | 91 | 1009.0 |
| 20260506094004 | 24 | 168 | 8.0 | 16.1 | 0.00 | 0.00 | 0.00 | 91 | 1008.9 |
| 20260506093503 | 24 | 173 | 8.0 | 16.1 | 0.00 | 0.00 | 0.00 | 91 | 1008.8 |
| 20260506093003 | 24 | 174 | 8.0 | 16.1 | 0.00 | 0.00 | 0.00 | 91 | 1008.8 |
| 20260506092503 | 24 | 170 | 8.0 | 16.1 | 0.00 | 0.00 | 0.00 | 91 | 1008.7 |
| 20260506092004 | 24 | 168 | 8.0 | 12.9 | 0.00 | 0.00 | 0.00 | 91 | 1008.7 |
| 20260506091524 | 24 | 168 | 8.0 | 16.1 | 0.00 | 0.00 | 0.00 | 91 | 1008.7 |
| 20260506091004 | 24 | 167 | 8.0 | 17.7 | 0.00 | 0.00 | 0.00 | 90 | 1008.7 |
| 20260506090503 | 24 | 166 | 8.0 | 17.7 | 0.00 | 0.00 | 0.00 | 90 | 1008.6 |
| 20260506090003 | 24 | 172 | 9.7 | 20.9 | 0.00 | 0.00 | 0.00 | 90 | 1008.7 |
| 20260506085524 | 24 | 177 | 8.0 | 20.9 | 0.00 | 0.00 | 0.00 | 90 | 1008.7 |
| 20260506085004 | 24 | 173 | 8.0 | 16.1 | 0.00 | 0.00 | 0.00 | 90 | 1008.6 |
| 20260506084525 | 24 | 169 | 9.7 | 17.7 | 0.00 | 0.00 | 0.00 | 90 | 1008.6 |
| 20260506084024 | 24 | 165 | 9.7 | 17.7 | 0.00 | 0.00 | 0.00 | 90 | 1008.7 |
| 20260506083504 | 24 | 164 | 8.0 | 17.7 | 0.00 | 0.00 | 0.00 | 90 | 1008.6 |
| 20260506083003 | 24 | 172 | 9.7 | 17.7 | 0.00 | 0.00 | 0.00 | 90 | 1008.7 |
| 20260506082504 | 24 | 172 | 9.7 | 19.3 | 0.00 | 0.00 | 0.00 | 90 | 1008.7 |
| 20260506082004 | 24 | 160 | 8.0 | 19.3 | 0.00 | 0.00 | 0.00 | 90 | 1008.6 |
| 20260506081503 | 24 | 156 | 8.0 | 17.7 | 0.00 | 0.00 | 0.00 | 89 | 1008.6 |
| 20260506081003 | 24 | 168 | 9.7 | 17.7 | 0.00 | 0.00 | 0.00 | 89 | 1008.7 |
| 20260506080503 | 24 | 168 | 11.3 | 17.7 | 0.00 | 0.00 | 0.00 | 89 | 1008.6 |
| 20260506073503 | 24 | 169 | 9.7 | 19.3 | 0.00 | 0.00 | 0.00 | 89 | 1009.0 |
| 20260506073003 | 24 | 166 | 9.7 | 22.5 | 0.00 | 0.00 | 0.00 | 89 | 1009.1 |
| 20260506072524 | 24 | 164 | 11.3 | 22.5 | 0.00 | 0.00 | 0.00 | 89 | 1009.1 |
| 20260506072003 | 24 | 166 | 11.3 | 22.5 | 0.00 | 0.00 | 0.00 | 89 | 1009.2 |
| 20260506071503 | 24 | 169 | 11.3 | 22.5 | 0.00 | 0.00 | 0.00 | 89 | 1009.2 |
| 20260506071024 | 24 | 168 | 9.7 | 20.9 | 0.00 | 0.00 | 0.00 | 89 | 1009.3 |
| 20260506070503 | 24 | 169 | 9.7 | 19.3 | 0.00 | 0.00 | 0.00 | 89 | 1009.4 |
| 20260506062503 | 24 | 164 | 8.0 | 25.7 | 0.00 | 0.00 | 0.00 | 88 | 1009.3 |
| 20260506062003 | 24 | 170 | 8.0 | 17.7 | 0.00 | 0.00 | 0.00 | 88 | 1009.3 |
| 20260506061503 | 24 | 162 | 9.7 | 17.7 | 0.00 | 0.00 | 0.00 | 88 | 1009.2 |
| 20260506061003 | 24 | 163 | 9.7 | 16.1 | 0.00 | 0.00 | 0.00 | 88 | 1009.2 |
| 20260506060504 | 24 | 162 | 9.7 | 17.7 | 0.00 | 0.00 | 0.00 | 88 | 1009.2 |
| 20260506051003 | 25 | 166 | 11.3 | 32.2 | 0.00 | 0.00 | 0.00 | 87 | 1009.4 |
| 20260506050503 | 25 | 167 | 11.3 | 32.2 | 0.00 | 0.00 | 0.00 | 87 | 1009.4 |
| 20260506045003 | 25 | 164 | 9.7 | 22.5 | 0.00 | 0.00 | 0.00 | 86 | 1009.4 |
| 20260506044503 | 25 | 164 | 9.7 | 22.5 | 0.00 | 0.00 | 0.00 | 86 | 1009.5 |
| 20260506044003 | 25 | 162 | 9.7 | 22.5 | 0.00 | 0.00 | 0.00 | 86 | 1009.5 |
| 20260506043503 | 25 | 149 | 8.0 | 17.7 | 0.00 | 0.00 | 0.00 | 87 | 1009.5 |
| 20260506043003 | 25 | 150 | 8.0 | 17.7 | 0.00 | 0.00 | 0.00 | 87 | 1009.6 |
| 20260506042503 | 25 | 161 | 6.4 | 11.3 | 0.00 | 0.00 | 0.00 | 87 | 1009.4 |
| 20260506042024 | 25 | 155 | 8.0 | 16.1 | 0.00 | 0.00 | 0.00 | 87 | 1009.4 |
| 20260506041503 | 25 | 157 | 8.0 | 17.7 | 0.00 | 0.00 | 0.00 | 87 | 1009.3 |
| 20260506041003 | 25 | 153 | 8.0 | 17.7 | 0.00 | 0.00 | 0.00 | 87 | 1009.3 |
| 20260506040503 | 25 | 148 | 8.0 | 16.1 | 0.00 | 0.00 | 0.00 | 86 | 1009.3 |
| 20260506040003 | 25 | 148 | 8.0 | 16.1 | 0.00 | 0.00 | 0.00 | 86 | 1009.1 |
| 20260506035503 | 25 | 136 | 9.7 | 17.7 | 0.00 | 0.00 | 0.00 | 86 | 1008.9 |
| 20260506035024 | 25 | 144 | 9.7 | 20.9 | 0.00 | 0.00 | 0.00 | 86 | 1008.9 |
| 20260506034503 | 25 | 161 | 8.0 | 20.9 | 0.00 | 0.00 | 0.00 | 86 | 1008.9 |
| 20260506034004 | 25 | 141 | 9.7 | 17.7 | 0.00 | 0.00 | 0.00 | 86 | 1008.8 |
| 20260506033652 | 25 | 138 | 9.7 | 16.1 | 0.00 | 0.00 | 0.00 | 86 | 1008.8 |